,,Stat1,,Stat2,,Stat3,,Stat4,,Wind1,,Wind1,
time,status,PR1M_SUM,status,RH1M_AVG,status,SR1M_AVG,status,TA1M_AVG,status,W1dAve1m,status,W1sAve1m,
1999-12-20, 00:01:00,VALID,0,VALID,99.0084,VALID,-0.0339617,VALID,17.965,VALID,165,VALID,0.761018,
1999-12-20, 00:02:00,VALID,0,VALID,98.9881,VALID,-0.0509425,VALID,17.9714,VALID,161,VALID,0.746289,
1999-12-20, 00:03:00,VALID,0,VALID,98.9385,VALID,-0.0679233,VALID,17.988,VALID,150,VALID,0.797676,
1999-12-20, 00:04:00,VALID,0,VALID,98.8825,VALID,-0.101885,VALID,17.9788,VALID,140,VALID,0.486431,
1999-12-20, 00:05:00,VALID,0,VALID,98.8647,VALID,-0.0339617,VALID,17.982,VALID,145,VALID,0.364347,
1999-12-20, 00:06:00,VALID,0,VALID,98.8494,VALID,-0.0679233,VALID,17.9818,VALID,146,VALID,0.275641,
1999-12-20, 00:07:00,VALID,0,VALID,98.9118,VALID,-0.0679233,VALID,18.0046,VALID,130,VALID,0.439967,
1999-12-20, 00:08:00,VALID,0,VALID,98.9181,VALID,-0.0509425,VALID,17.9945,VALID,101,VALID,0.499783,
1999-12-20, 00:09:00,VALID,0,VALID,98.8889,VALID,-0.0849042,VALID,17.9947,VALID,98,VALID,0.380804,
1999-12-20, 00:10:00,VALID,0,VALID,98.8316,VALID,-0.0849042,VALID,17.9689,VALID,98,VALID,0.24043,
1999-12-20, 00:11:00,VALID,0,VALID,98.8164,VALID,-0.0679233,VALID,17.9456,VALID,113,VALID,0.14741,
1999-12-20, 00:12:00,VALID,0,VALID,98.8507,VALID,-0.0849042,VALID,17.9456,VALID,115,VALID,0,
1999-12-20, 00:13:00,VALID,0,VALID,98.8482,VALID,-0.101885,VALID,17.9492,VALID,115,VALID,0,
1999-12-20, 00:14:00,VALID,0,VALID,98.8494,VALID,-0.0509425,VALID,17.9525,VALID,127,VALID,0,
1999-12-20, 00:15:00,VALID,0,VALID,98.8024,VALID,-0.0339617,VALID,17.9264,VALID,130,VALID,0,
1999-12-20, 00:16:00,VALID,0,VALID,98.8011,VALID,-0.0679233,VALID,17.9135,VALID,183,VALID,0,
1999-12-20, 00:17:00,VALID,0,VALID,98.8151,VALID,-0.0339617,VALID,17.9102,VALID,185,VALID,0,
1999-12-20, 00:18:00,VALID,0,VALID,98.8164,VALID,0,VALID,17.9003,VALID,186,VALID,0,
1999-12-20, 00:19:00,VALID,0,VALID,98.7999,VALID,-0.0679233,VALID,17.8948,VALID,203,VALID,0.312089,
1999-12-20, 00:20:00,VALID,0,VALID,98.8088,VALID,-0.0679233,VALID,17.8717,VALID,212,VALID,0.448134,
1999-12-20, 00:21:00,VALID,0,VALID,98.8304,VALID,-0.0509425,VALID,17.8652,VALID,219,VALID,0.455236,
1999-12-20, 00:22:00,VALID,0,VALID,98.866,VALID,-0.0849042,VALID,17.8458,VALID,220,VALID,0.427083,
1999-12-20, 00:23:00,VALID,0,VALID,98.8914,VALID,-0.0679233,VALID,17.8394,VALID,220,VALID,0.528392,
1999-12-20, 00:24:00,VALID,0,VALID,98.9181,VALID,-0.0679233,VALID,17.8265,VALID,215,VALID,0.621528,
1999-12-20, 00:25:00,VALID,0,VALID,98.9181,VALID,-0.0679233,VALID,17.8168,VALID,212,VALID,0.516602,
1999-12-20, 00:26:00,VALID,0,VALID,98.9601,VALID,-0.0849042,VALID,17.7939,VALID,211,VALID,0.553248,
1999-12-20, 00:27:00,VALID,0,VALID,98.9906,VALID,-0.0509425,VALID,17.7875,VALID,204,VALID,0.706715,
1999-12-20, 00:28:00,VALID,0,VALID,99.0135,VALID,-0.0509425,VALID,17.7948,VALID,196,VALID,0.701758,
1999-12-20, 00:29:00,VALID,0,VALID,99.0694,VALID,-0.0509425,VALID,17.7939,VALID,196,VALID,0,
1999-12-20, 00:30:00,VALID,0,VALID,99.0694,VALID,-0.0849042,VALID,17.7842,VALID,196,VALID,0,
1999-12-20, 00:31:00,VALID,0,VALID,99.0338,VALID,-0.0849042,VALID,17.7953,VALID,196,VALID,0,
1999-12-20, 00:32:01,VALID,0,VALID,99.0173,VALID,-0.0509425,VALID,17.7747,VALID,184,VALID,0,
1999-12-20, 00:33:00,VALID,0,VALID,99.03,VALID,0,VALID,17.7708,VALID,178,VALID,0,
1999-12-20, 00:34:00,VALID,0,VALID,99.0287,VALID,0,VALID,17.748,VALID,176,VALID,0,
1999-12-20, 00:35:00,VALID,0,VALID,99.0237,VALID,0.0169808,VALID,17.7415,VALID,176,VALID,0,
1999-12-20, 00:36:00,VALID,0,VALID,99.0046,VALID,0.0339617,VALID,17.7291,VALID,176,VALID,0,
1999-12-20, 00:37:00,VALID,0,VALID,99.0415,VALID,0.0509425,VALID,17.7125,VALID,176,VALID,0,
1999-12-20, 00:38:00,VALID,0,VALID,99.0504,VALID,0.0849042,VALID,17.6956,VALID,176,VALID,0,
1999-12-20, 00:39:00,VALID,0,VALID,99.072,VALID,0.0679233,VALID,17.6924,VALID,176,VALID,0,
1999-12-20, 00:40:00,VALID,0,VALID,99.0809,VALID,0.0679233,VALID,17.6933,VALID,176,VALID,0,
1999-12-20, 00:41:00,VALID,0,VALID,99.1203,VALID,0.0849042,VALID,17.6901,VALID,176,VALID,0,
1999-12-20, 00:42:00,VALID,0,VALID,99.1318,VALID,0.0169808,VALID,17.6832,VALID,176,VALID,0,
1999-12-20, 00:43:00,VALID,0,VALID,99.1165,VALID,0.0509425,VALID,17.6605,VALID,176,VALID,0,
1999-12-20, 00:44:01,VALID,0,VALID,99.1203,VALID,0.0169808,VALID,17.6543,VALID,176,VALID,0,
1999-12-20, 00:45:00,VALID,0,VALID,99.1305,VALID,0.0339617,VALID,17.6478,VALID,176,VALID,0,
1999-12-20, 00:46:00,VALID,0,VALID,99.1534,VALID,0.0509425,VALID,17.6407,VALID,176,VALID,0,
1999-12-20, 00:47:00,VALID,0,VALID,99.1292,VALID,0,VALID,17.6351,VALID,176,VALID,0,
1999-12-20, 00:48:00,VALID,0,VALID,99.1788,VALID,0,VALID,17.6319,VALID,176,VALID,0,
1999-12-20, 00:49:00,VALID,0,VALID,99.1928,VALID,-0.0169808,VALID,17.619,VALID,176,VALID,0,
1999-12-20, 00:50:00,VALID,0,VALID,99.1699,VALID,-0.0169808,VALID,17.6194,VALID,178,VALID,0,
1999-12-20, 00:51:00,VALID,0,VALID,99.1318,VALID,0,VALID,17.5867,VALID,186,VALID,0,
1999-12-20, 00:52:00,VALID,0,VALID,99.1089,VALID,0.0169808,VALID,17.5707,VALID,205,VALID,0,
1999-12-20, 00:53:00,VALID,0,VALID,99.1,VALID,0,VALID,17.5511,VALID,214,VALID,0,
1999-12-20, 00:54:00,VALID,0,VALID,99.1991,VALID,0,VALID,17.5574,VALID,231,VALID,0,
1999-12-20, 00:55:01,VALID,0,VALID,99.2716,VALID,-0.0169808,VALID,17.5608,VALID,245,VALID,0,
1999-12-20, 00:56:00,VALID,0,VALID,99.2576,VALID,0,VALID,17.5546,VALID,241,VALID,0,
1999-12-20, 00:57:00,VALID,0,VALID,99.2932,VALID,-0.0169808,VALID,17.5447,VALID,231,VALID,0,
1999-12-20, 00:58:00,VALID,0,VALID,99.3212,VALID,0,VALID,17.5414,VALID,230,VALID,0,
1999-12-20, 00:59:00,VALID,0,VALID,99.311,VALID,0,VALID,17.5255,VALID,230,VALID,0,
1999-12-20, 01:00:00,VALID,0,VALID,99.2843,VALID,0,VALID,17.5061,VALID,230,VALID,0,
1999-12-20, 01:01:00,VALID,0,VALID,99.2208,VALID,0,VALID,17.4676,VALID,230,VALID,0,
1999-12-20, 01:02:00,VALID,0,VALID,99.2169,VALID,0,VALID,17.4516,VALID,228,VALID,0,
1999-12-20, 01:03:00,VALID,0,VALID,99.2437,VALID,-0.0169808,VALID,17.4452,VALID,204,VALID,0,
1999-12-20, 01:04:00,VALID,0,VALID,99.2678,VALID,0,VALID,17.4219,VALID,197,VALID,0,
1999-12-20, 01:05:01,VALID,0,VALID,99.3454,VALID,0,VALID,17.4322,VALID,197,VALID,0,
1999-12-20, 01:06:01,VALID,0,VALID,99.3924,VALID,0,VALID,17.4316,VALID,197,VALID,0,
1999-12-20, 01:07:00,VALID,0,VALID,99.3975,VALID,0.0339617,VALID,17.4417,VALID,182,VALID,0,
1999-12-20, 01:08:00,VALID,0,VALID,99.3238,VALID,0,VALID,17.3995,VALID,158,VALID,0,
1999-12-20, 01:09:00,VALID,0,VALID,99.2996,VALID,0,VALID,17.3806,VALID,157,VALID,0,
1999-12-20, 01:10:00,VALID,0,VALID,99.3466,VALID,0,VALID,17.3543,VALID,157,VALID,0,
1999-12-20, 01:11:00,VALID,0,VALID,99.3746,VALID,0.0169808,VALID,17.3676,VALID,157,VALID,0,
1999-12-20, 01:12:00,VALID,0,VALID,99.4725,VALID,0.0169808,VALID,17.3642,VALID,169,VALID,0,
1999-12-20, 01:13:00,VALID,0,VALID,99.5348,VALID,0,VALID,17.4029,VALID,175,VALID,0,
1999-12-20, 01:14:00,VALID,0,VALID,99.5132,VALID,-0.0169808,VALID,17.3898,VALID,155,VALID,0,
1999-12-20, 01:15:00,VALID,0,VALID,99.5298,VALID,0,VALID,17.396,VALID,143,VALID,0.176482,
1999-12-20, 01:16:00,VALID,0,VALID,99.6289,VALID,0.0339617,VALID,17.4452,VALID,151,VALID,0.870477,
1999-12-20, 01:17:01,VALID,0,VALID,99.6213,VALID,0,VALID,17.4413,VALID,181,VALID,0.32463,
1999-12-20, 01:18:00,VALID,0,VALID,99.6582,VALID,0,VALID,17.4673,VALID,200,VALID,0.089527,
1999-12-20, 01:19:00,VALID,0,VALID,99.6582,VALID,-0.0339617,VALID,17.487,VALID,201,VALID,0.0450247,
1999-12-20, 01:20:00,VALID,0,VALID,99.6951,VALID,-0.0169808,VALID,17.5193,VALID,192,VALID,0.540799,
1999-12-20, 01:21:00,VALID,0,VALID,99.8146,VALID,0,VALID,17.5643,VALID,180,VALID,0.838542,
1999-12-20, 01:22:00,VALID,0,VALID,99.8934,VALID,0,VALID,17.6547,VALID,179,VALID,1.07072,
1999-12-20, 01:23:00,VALID,0,VALID,99.807,VALID,0,VALID,17.7067,VALID,181,VALID,0.742188,
1999-12-20, 01:24:00,VALID,0,VALID,99.718,VALID,0.0169808,VALID,17.7226,VALID,179,VALID,0.629018,
1999-12-20, 01:25:00,VALID,0,VALID,99.6518,VALID,0.0169808,VALID,17.7422,VALID,169,VALID,0.785256,
1999-12-20, 01:26:00,VALID,0,VALID,99.5806,VALID,0,VALID,17.7452,VALID,164,VALID,0.673986,
1999-12-20, 01:27:00,VALID,0,VALID,99.512,VALID,0.0339617,VALID,17.7586,VALID,166,VALID,0.533512,
1999-12-20, 01:28:01,VALID,0,VALID,99.3988,VALID,-0.0169808,VALID,17.7362,VALID,217,VALID,0.428632,
1999-12-20, 01:29:00,VALID,0,VALID,99.3912,VALID,-0.0169808,VALID,17.7362,VALID,220,VALID,0.477865,
1999-12-20, 01:30:00,VALID,0,VALID,99.4128,VALID,0,VALID,17.7491,VALID,205,VALID,0.624199,
1999-12-20, 01:31:00,VALID,0,VALID,99.4369,VALID,0,VALID,17.7551,VALID,178,VALID,0.771115,
1999-12-20, 01:32:00,VALID,0,VALID,99.3899,VALID,0,VALID,17.7517,VALID,161,VALID,0.730078,
1999-12-20, 01:33:00,VALID,0,VALID,99.3937,VALID,0.0169808,VALID,17.7584,VALID,160,VALID,0.613381,
1999-12-20, 01:34:00,VALID,0,VALID,99.4318,VALID,0.0339617,VALID,17.7676,VALID,160,VALID,0.430532,
1999-12-20, 01:35:00,VALID,0,VALID,99.4611,VALID,0.0339617,VALID,17.7805,VALID,160,VALID,0.0246212,
1999-12-20, 01:36:00,VALID,0,VALID,99.4395,VALID,0.0169808,VALID,17.784,VALID,160,VALID,0,
1999-12-20, 01:37:00,VALID,0,VALID,99.4191,VALID,0,VALID,17.7909,VALID,160,VALID,0,
1999-12-20, 01:38:00,VALID,0,VALID,99.4191,VALID,0,VALID,17.7805,VALID,160,VALID,0,
1999-12-20, 01:39:01,VALID,0,VALID,99.4217,VALID,0.0339617,VALID,17.7941,VALID,160,VALID,0,
1999-12-20, 01:40:00,VALID,0,VALID,99.4064,VALID,0,VALID,17.7939,VALID,160,VALID,0,
1999-12-20, 01:41:00,VALID,0,VALID,99.3823,VALID,0,VALID,17.7872,VALID,160,VALID,0,
1999-12-20, 01:42:00,VALID,0,VALID,99.3861,VALID,0,VALID,17.7872,VALID,278,VALID,0.237413,
1999-12-20, 01:43:00,VALID,0,VALID,99.428,VALID,0.0169808,VALID,17.8034,VALID,296,VALID,0.0346554,
1999-12-20, 01:44:00,VALID,0,VALID,99.4713,VALID,0,VALID,17.8325,VALID,270,VALID,0.226997,
1999-12-20, 01:45:00,VALID,0,VALID,99.4738,VALID,0.0169808,VALID,17.8486,VALID,161,VALID,0.414263,
1999-12-20, 01:46:00,VALID,0,VALID,99.4293,VALID,0.0169808,VALID,17.8551,VALID,128,VALID,0.792019,
1999-12-20, 01:47:00,VALID,0,VALID,99.4115,VALID,0,VALID,17.8613,VALID,121,VALID,0.152872,
1999-12-20, 01:48:00,VALID,0,VALID,99.3708,VALID,0,VALID,17.8904,VALID,121,VALID,0.103885,
1999-12-20, 01:49:01,VALID,0,VALID,99.3505,VALID,0.0169808,VALID,17.9005,VALID,121,VALID,0,
1999-12-20, 01:50:00,VALID,0,VALID,99.2996,VALID,0.0169808,VALID,17.913,VALID,138,VALID,0.105686,
1999-12-20, 01:51:00,VALID,0,VALID,99.2182,VALID,0.0679233,VALID,17.9227,VALID,183,VALID,0.194257,
1999-12-20, 01:52:00,VALID,0,VALID,99.1712,VALID,0.0339617,VALID,17.9453,VALID,265,VALID,0.0883247,
1999-12-20, 01:53:00,VALID,0,VALID,99.1241,VALID,0.0849042,VALID,17.9647,VALID,193,VALID,0.292492,
1999-12-20, 01:54:00,VALID,0,VALID,99.1076,VALID,0.0339617,VALID,17.9807,VALID,123,VALID,0.574002,
1999-12-20, 01:55:00,VALID,0,VALID,99.0211,VALID,0.0339617,VALID,17.9873,VALID,96,VALID,0.244727,
1999-12-20, 01:56:00,VALID,0,VALID,98.9079,VALID,0.0169808,VALID,17.9804,VALID,117,VALID,0.0232319,
1999-12-20, 01:57:00,VALID,0,VALID,98.8291,VALID,0.0169808,VALID,17.9779,VALID,169,VALID,0.0865709,
1999-12-20, 01:58:00,VALID,0,VALID,98.7782,VALID,0.0339617,VALID,17.9677,VALID,228,VALID,0.0292969,
1999-12-20, 01:59:00,VALID,0,VALID,98.7833,VALID,0.0169808,VALID,17.974,VALID,134,VALID,0.0368652,
1999-12-20, 02:00:00,VALID,0,VALID,98.7846,VALID,0.0339617,VALID,17.9901,VALID,121,VALID,0,
1999-12-20, 02:01:00,VALID,0,VALID,98.6791,VALID,0.0509425,VALID,17.9807,VALID,133,VALID,0,
1999-12-20, 02:02:00,VALID,0,VALID,98.6358,VALID,0,VALID,17.9742,VALID,133,VALID,0,
1999-12-20, 02:03:00,VALID,0,VALID,98.5951,VALID,-0.0339617,VALID,17.9723,VALID,120,VALID,0,
1999-12-20, 02:04:00,VALID,0,VALID,98.4158,VALID,-0.0849042,VALID,18.0178,VALID,109,VALID,0,
1999-12-20, 02:05:00,VALID,0,VALID,98.1628,VALID,-0.0679233,VALID,18.0889,VALID,115,VALID,0,
1999-12-20, 02:06:00,VALID,0,VALID,97.9377,VALID,-0.0509425,VALID,18.1309,VALID,126,VALID,0,
1999-12-20, 02:07:00,VALID,0,VALID,97.6414,VALID,-0.0509425,VALID,18.1466,VALID,117,VALID,0,
1999-12-20, 02:08:00,VALID,0,VALID,97.335,VALID,-0.0849042,VALID,18.1921,VALID,111,VALID,0,
1999-12-20, 02:09:00,VALID,0,VALID,97.1277,VALID,-0.0509425,VALID,18.2276,VALID,103,VALID,0,
1999-12-20, 02:10:00,VALID,0,VALID,97.0743,VALID,-0.0679233,VALID,18.2376,VALID,116,VALID,0,
1999-12-20, 02:11:01,VALID,0,VALID,97.1315,VALID,-0.101885,VALID,18.2246,VALID,122,VALID,0,
1999-12-20, 02:12:00,VALID,0,VALID,97.1315,VALID,-0.0849042,VALID,18.1951,VALID,119,VALID,0,
1999-12-20, 02:13:00,VALID,0,VALID,97.129,VALID,-0.0339617,VALID,18.1918,VALID,119,VALID,0,
1999-12-20, 02:14:00,VALID,0,VALID,97.2599,VALID,-0.0169808,VALID,18.1822,VALID,119,VALID,0,
1999-12-20, 02:15:00,VALID,0,VALID,97.3019,VALID,-0.0679233,VALID,18.1759,VALID,119,VALID,0,
1999-12-20, 02:16:00,VALID,0,VALID,97.3744,VALID,-0.0509425,VALID,18.1789,VALID,119,VALID,0,
1999-12-20, 02:17:00,VALID,0,VALID,97.3858,VALID,-0.0849042,VALID,18.166,VALID,125,VALID,0,
1999-12-20, 02:18:00,VALID,0,VALID,97.4138,VALID,-0.0849042,VALID,18.1662,VALID,128,VALID,0,
1999-12-20, 02:19:00,VALID,0,VALID,97.368,VALID,-0.0509425,VALID,18.13,VALID,129,VALID,0,
1999-12-20, 02:20:00,VALID,0,VALID,97.3273,VALID,-0.0849042,VALID,18.1404,VALID,129,VALID,0,
1999-12-20, 02:21:00,VALID,0,VALID,97.4405,VALID,-0.0509425,VALID,18.1332,VALID,129,VALID,0,
1999-12-20, 02:22:00,VALID,0,VALID,97.3579,VALID,-0.0849042,VALID,18.1334,VALID,129,VALID,0,
1999-12-20, 02:23:00,VALID,0,VALID,97.0603,VALID,-0.0509425,VALID,18.1468,VALID,132,VALID,0,
1999-12-20, 02:24:00,VALID,0,VALID,96.8823,VALID,-0.0679233,VALID,18.1464,VALID,127,VALID,0,
1999-12-20, 02:25:00,VALID,0,VALID,96.8136,VALID,-0.0849042,VALID,18.1591,VALID,140,VALID,0,
1999-12-20, 02:26:00,VALID,0,VALID,96.8034,VALID,-0.0339617,VALID,18.1558,VALID,141,VALID,0,
1999-12-20, 02:27:00,VALID,0,VALID,96.6877,VALID,-0.0849042,VALID,18.1369,VALID,140,VALID,0,
1999-12-20, 02:28:00,VALID,0,VALID,96.703,VALID,-0.101885,VALID,18.1533,VALID,128,VALID,0,
1999-12-20, 02:29:00,VALID,0,VALID,96.792,VALID,-0.0849042,VALID,18.163,VALID,126,VALID,0,
1999-12-20, 02:30:00,VALID,0,VALID,96.7513,VALID,-0.0849042,VALID,18.1503,VALID,126,VALID,0,
1999-12-20, 02:31:00,VALID,0,VALID,96.5746,VALID,-0.0849042,VALID,18.1274,VALID,124,VALID,0,
1999-12-20, 02:32:00,VALID,0,VALID,96.5186,VALID,-0.0509425,VALID,18.1235,VALID,111,VALID,0,
1999-12-20, 02:33:00,VALID,0,VALID,96.4105,VALID,0.0339617,VALID,18.1325,VALID,111,VALID,0,
1999-12-20, 02:34:00,VALID,0,VALID,96.5262,VALID,0.0339617,VALID,18.1194,VALID,114,VALID,0,
1999-12-20, 02:35:00,VALID,0,VALID,96.6343,VALID,0.0679233,VALID,18.103,VALID,117,VALID,0.534505,
1999-12-20, 02:36:00,VALID,0,VALID,96.6305,VALID,0.0679233,VALID,18.1122,VALID,262,VALID,0.342905,
1999-12-20, 02:37:00,VALID,0,VALID,96.408,VALID,0.0509425,VALID,18.1222,VALID,236,VALID,0.0729167,
1999-12-20, 02:38:00,VALID,0,VALID,95.8408,VALID,0.0679233,VALID,18.1972,VALID,111,VALID,0.494855,
1999-12-20, 02:39:00,VALID,0,VALID,95.8624,VALID,0.0339617,VALID,18.2941,VALID,94,VALID,0.30816,
1999-12-20, 02:40:00,VALID,0,VALID,95.6514,VALID,0.0169808,VALID,18.3033,VALID,115,VALID,0,
1999-12-20, 02:41:00,VALID,0,VALID,95.6323,VALID,0,VALID,18.313,VALID,119,VALID,0,
1999-12-20, 02:42:00,VALID,0,VALID,95.4772,VALID,0.0339617,VALID,18.3066,VALID,122,VALID,0,
1999-12-20, 02:43:00,VALID,0,VALID,95.3945,VALID,0.0339617,VALID,18.2994,VALID,122,VALID,0,
1999-12-20, 02:44:00,VALID,0,VALID,95.4581,VALID,0.0339617,VALID,18.3096,VALID,122,VALID,0,
1999-12-20, 02:45:00,VALID,0,VALID,95.6844,VALID,0.0339617,VALID,18.2967,VALID,126,VALID,0,
1999-12-20, 02:46:00,VALID,0,VALID,95.7353,VALID,0.0509425,VALID,18.2646,VALID,123,VALID,0,
1999-12-20, 02:47:00,VALID,0,VALID,96.0863,VALID,0.0339617,VALID,18.2323,VALID,116,VALID,0,
1999-12-20, 02:48:00,VALID,0,VALID,96.366,VALID,-0.0509425,VALID,18.2011,VALID,97,VALID,0,
1999-12-20, 02:49:00,VALID,0,VALID,96.511,VALID,-0.0339617,VALID,18.1819,VALID,98,VALID,0,
1999-12-20, 02:50:00,VALID,0,VALID,96.7068,VALID,-0.0169808,VALID,18.1713,VALID,104,VALID,0,
1999-12-20, 02:51:00,VALID,0,VALID,96.689,VALID,-0.0509425,VALID,18.1884,VALID,111,VALID,0,
1999-12-20, 02:52:00,VALID,0,VALID,96.8378,VALID,-0.0509425,VALID,18.1817,VALID,109,VALID,0,
1999-12-20, 02:53:00,VALID,0,VALID,96.8581,VALID,-0.0679233,VALID,18.1822,VALID,120,VALID,0,
1999-12-20, 02:54:00,VALID,0,VALID,96.8212,VALID,-0.0339617,VALID,18.1748,VALID,125,VALID,0.101563,
1999-12-20, 02:55:00,VALID,0,VALID,96.8212,VALID,-0.0679233,VALID,18.1847,VALID,115,VALID,0.678285,
1999-12-20, 02:56:00,VALID,0,VALID,96.7335,VALID,-0.0339617,VALID,18.1785,VALID,113,VALID,0.131123,
1999-12-20, 02:57:00,VALID,0,VALID,96.5669,VALID,-0.0849042,VALID,18.1852,VALID,103,VALID,0,
1999-12-20, 02:58:00,VALID,0,VALID,96.3215,VALID,-0.0679233,VALID,18.2043,VALID,103,VALID,0,
1999-12-20, 02:59:00,VALID,0,VALID,96.2236,VALID,-0.0849042,VALID,18.2463,VALID,103,VALID,0,
1999-12-20, 03:00:00,VALID,0,VALID,96.1816,VALID,-0.0679233,VALID,18.262,VALID,103,VALID,0,
1999-12-20, 03:01:00,VALID,0,VALID,96.4054,VALID,-0.101885,VALID,18.2724,VALID,103,VALID,0,
1999-12-20, 03:02:00,VALID,0,VALID,96.628,VALID,-0.0509425,VALID,18.262,VALID,113,VALID,0,
1999-12-20, 03:03:00,VALID,0,VALID,96.5682,VALID,-0.0679233,VALID,18.2754,VALID,115,VALID,0.036859,
1999-12-20, 03:04:00,VALID,0,VALID,96.6699,VALID,-0.0679233,VALID,18.2789,VALID,107,VALID,1.0019,
1999-12-20, 03:05:01,VALID,0,VALID,96.6598,VALID,-0.0339617,VALID,18.2493,VALID,120,VALID,0.744555,
1999-12-20, 03:06:00,VALID,0,VALID,96.5339,VALID,-0.0169808,VALID,18.2396,VALID,105,VALID,0.251803,
1999-12-20, 03:07:00,VALID,0,VALID,96.6254,VALID,-0.0509425,VALID,18.2563,VALID,105,VALID,0,
1999-12-20, 03:08:00,VALID,0,VALID,96.4245,VALID,-0.0679233,VALID,18.2426,VALID,105,VALID,0.000868056,
1999-12-20, 03:09:00,VALID,0,VALID,95.8078,VALID,-0.0169808,VALID,18.2985,VALID,87,VALID,0.278348,
1999-12-20, 03:10:00,VALID,0,VALID,95.5357,VALID,-0.0339617,VALID,18.398,VALID,94,VALID,0.684961,
1999-12-20, 03:11:00,VALID,0,VALID,95.2432,VALID,-0.0169808,VALID,18.4527,VALID,97,VALID,0.807155,
1999-12-20, 03:12:00,VALID,0,VALID,95.205,VALID,-0.0509425,VALID,18.4656,VALID,105,VALID,0.728733,
1999-12-20, 03:13:00,VALID,0,VALID,95.289,VALID,-0.0679233,VALID,18.4691,VALID,115,VALID,0.570513,
1999-12-20, 03:14:00,VALID,0,VALID,95.2953,VALID,-0.0339617,VALID,18.4497,VALID,105,VALID,0.821615,
1999-12-20, 03:15:00,VALID,0,VALID,95.4848,VALID,0,VALID,18.4139,VALID,112,VALID,0.817909,
1999-12-20, 03:16:00,VALID,0,VALID,95.5166,VALID,-0.0679233,VALID,18.398,VALID,120,VALID,0.510346,
1999-12-20, 03:17:00,VALID,0,VALID,95.5344,VALID,-0.0339617,VALID,18.3853,VALID,116,VALID,0.0831926,
1999-12-20, 03:18:00,VALID,0,VALID,95.7137,VALID,-0.0509425,VALID,18.3557,VALID,112,VALID,0,
1999-12-20, 03:19:00,VALID,0,VALID,96.0163,VALID,-0.101885,VALID,18.3334,VALID,101,VALID,0,
1999-12-20, 03:20:00,VALID,0,VALID,96.2694,VALID,-0.0339617,VALID,18.3043,VALID,98,VALID,0,
1999-12-20, 03:21:00,VALID,0,VALID,96.4003,VALID,-0.0169808,VALID,18.2782,VALID,101,VALID,0.503801,
1999-12-20, 03:22:00,VALID,0,VALID,96.4665,VALID,-0.0339617,VALID,18.2625,VALID,97,VALID,0.548611,
1999-12-20, 03:23:00,VALID,0,VALID,96.5606,VALID,-0.0169808,VALID,18.259,VALID,82,VALID,0.325457,
1999-12-20, 03:24:00,VALID,0,VALID,96.5911,VALID,-0.0849042,VALID,18.2526,VALID,102,VALID,0.28928,
1999-12-20, 03:25:00,VALID,0,VALID,96.4372,VALID,-0.0509425,VALID,18.2752,VALID,110,VALID,0.746289,
1999-12-20, 03:26:00,VALID,0,VALID,96.3355,VALID,-0.0169808,VALID,18.2946,VALID,110,VALID,0.798931,
1999-12-20, 03:27:00,VALID,0,VALID,96.3177,VALID,-0.0339617,VALID,18.3008,VALID,109,VALID,0.886402,
1999-12-20, 03:28:01,VALID,0,VALID,96.3736,VALID,-0.0509425,VALID,18.2747,VALID,106,VALID,0.978906,
1999-12-20, 03:29:00,VALID,0,VALID,96.4372,VALID,0,VALID,18.2849,VALID,103,VALID,0.750732,
1999-12-20, 03:30:00,VALID,0,VALID,96.5847,VALID,0,VALID,18.2715,VALID,79,VALID,0.498798,
1999-12-20, 03:31:00,VALID,0,VALID,96.4423,VALID,-0.0509425,VALID,18.265,VALID,68,VALID,0.666118,
1999-12-20, 03:32:00,VALID,0,VALID,96.2821,VALID,-0.0339617,VALID,18.2976,VALID,80,VALID,0.486637,
1999-12-20, 03:33:00,VALID,0,VALID,96.2045,VALID,-0.0679233,VALID,18.3269,VALID,82,VALID,0.251267,
1999-12-20, 03:34:00,VALID,0,VALID,96.0557,VALID,-0.0339617,VALID,18.3366,VALID,89,VALID,0.282484,
1999-12-20, 03:35:00,VALID,0,VALID,96.0125,VALID,-0.0339617,VALID,18.3624,VALID,117,VALID,0.0828993,
1999-12-20, 03:36:00,VALID,0,VALID,96.1943,VALID,-0.0169808,VALID,18.3617,VALID,122,VALID,0,
1999-12-20, 03:37:00,VALID,0,VALID,96.3927,VALID,-0.0339617,VALID,18.3719,VALID,122,VALID,0.0384457,
1999-12-20, 03:38:00,VALID,0,VALID,96.2198,VALID,0,VALID,18.3659,VALID,119,VALID,0,
1999-12-20, 03:39:00,VALID,0,VALID,96.3202,VALID,-0.0339617,VALID,18.3624,VALID,118,VALID,0,
1999-12-20, 03:40:00,VALID,0,VALID,96.6216,VALID,-0.0679233,VALID,18.3493,VALID,118,VALID,0,
1999-12-20, 03:41:00,VALID,0,VALID,96.7411,VALID,-0.0849042,VALID,18.3495,VALID,95,VALID,0,
1999-12-20, 03:42:00,VALID,0,VALID,96.5288,VALID,-0.0509425,VALID,18.32,VALID,97,VALID,0,
1999-12-20, 03:43:00,VALID,0,VALID,96.3291,VALID,-0.0679233,VALID,18.3426,VALID,97,VALID,0,
1999-12-20, 03:44:00,VALID,0,VALID,96.3647,VALID,-0.0509425,VALID,18.3525,VALID,97,VALID,0,
1999-12-20, 03:45:00,VALID,0,VALID,96.1829,VALID,-0.0679233,VALID,18.3622,VALID,91,VALID,0,
1999-12-20, 03:46:00,VALID,0,VALID,96.1943,VALID,-0.0339617,VALID,18.3913,VALID,84,VALID,0,
1999-12-20, 03:47:00,VALID,0,VALID,96.5262,VALID,-0.0509425,VALID,18.4206,VALID,84,VALID,0,
1999-12-20, 03:48:00,VALID,0,VALID,96.7958,VALID,-0.0169808,VALID,18.4174,VALID,96,VALID,0,
1999-12-20, 03:49:00,VALID,0,VALID,96.9548,VALID,0.0169808,VALID,18.3682,VALID,100,VALID,0,
1999-12-20, 03:50:01,VALID,0,VALID,96.7132,VALID,-0.0169808,VALID,18.32,VALID,99,VALID,0,
1999-12-20, 03:51:00,VALID,0,VALID,96.4118,VALID,-0.0169808,VALID,18.3525,VALID,93,VALID,0,
1999-12-20, 03:52:00,VALID,0,VALID,96.3635,VALID,-0.0169808,VALID,18.3781,VALID,93,VALID,0,
1999-12-20, 03:53:00,VALID,0,VALID,96.2401,VALID,0,VALID,18.4072,VALID,90,VALID,0,
1999-12-20, 03:54:00,VALID,0,VALID,96.0532,VALID,-0.0169808,VALID,18.41,VALID,95,VALID,0,
1999-12-20, 03:55:00,VALID,0,VALID,95.9655,VALID,-0.0339617,VALID,18.4234,VALID,98,VALID,0,
1999-12-20, 03:56:00,VALID,0,VALID,95.687,VALID,-0.0509425,VALID,18.4234,VALID,96,VALID,0,
1999-12-20, 03:57:00,VALID,0,VALID,95.6158,VALID,-0.0169808,VALID,18.4331,VALID,83,VALID,0,
1999-12-20, 03:58:00,VALID,0,VALID,95.7734,VALID,-0.0339617,VALID,18.4428,VALID,81,VALID,0,
1999-12-20, 03:59:00,VALID,0,VALID,95.7963,VALID,-0.0339617,VALID,18.4135,VALID,83,VALID,0,
1999-12-20, 04:00:00,VALID,0,VALID,95.5763,VALID,-0.0169808,VALID,18.4005,VALID,95,VALID,0,
1999-12-20, 04:01:01,VALID,0,VALID,95.1936,VALID,0,VALID,18.4656,VALID,89,VALID,0,
1999-12-20, 04:02:00,VALID,0,VALID,95.275,VALID,0,VALID,18.4913,VALID,98,VALID,0,
1999-12-20, 04:03:00,VALID,0,VALID,95.3983,VALID,0,VALID,18.4809,VALID,106,VALID,0,
1999-12-20, 04:04:00,VALID,0,VALID,95.5128,VALID,-0.0339617,VALID,18.4652,VALID,111,VALID,0,
1999-12-20, 04:05:00,VALID,0,VALID,95.5585,VALID,-0.0169808,VALID,18.4393,VALID,111,VALID,0,
1999-12-20, 04:06:00,VALID,0,VALID,95.5484,VALID,0,VALID,18.4137,VALID,106,VALID,0,
1999-12-20, 04:07:00,VALID,0,VALID,95.6641,VALID,0.0169808,VALID,18.4105,VALID,123,VALID,0,
1999-12-20, 04:08:00,VALID,0,VALID,95.8332,VALID,-0.0339617,VALID,18.3779,VALID,117,VALID,0,
1999-12-20, 04:09:00,VALID,0,VALID,95.8472,VALID,-0.0169808,VALID,18.3592,VALID,112,VALID,0,
1999-12-20, 04:10:00,VALID,0,VALID,96.0138,VALID,-0.0509425,VALID,18.3488,VALID,117,VALID,0,
1999-12-20, 04:11:00,VALID,0,VALID,96.1804,VALID,-0.0169808,VALID,18.3267,VALID,132,VALID,0,
1999-12-20, 04:12:01,VALID,0,VALID,96.1346,VALID,-0.0339617,VALID,18.3103,VALID,151,VALID,0,